UAL454 KLAX-KSFO

Flight info

Callsign UAL454
Flight time 0h 50m
Altitude 34000
Route SUMMR2 STOKD SERFR SERFR4
Aircraft A321/M-VGDW/C

Departure

Time 2026-04-25 21:33
Airport Los Angeles International Airport (KLAX)

Arrival

Time 2026-04-25 22:24
Airport San Francisco International Airport (KSFO)
Time Latitude Longitude Altitude Speed Heading
2026-04-25 21:05 33.94070 -118.40015 103 ft 0 kts 80°
2026-04-25 21:21 33.94069 -118.40020 94 ft 3 kts 80°
2026-04-25 21:21 33.94064 -118.40051 93 ft 4 kts 88°
2026-04-25 21:22 33.94070 -118.40072 94 ft 4 kts 168°
2026-04-25 21:22 33.94067 -118.40072 93 ft 4 kts 173°
2026-04-25 21:22 33.94047 -118.40069 94 ft 0 kts 173°
2026-04-25 21:27 33.94034 -118.40067 94 ft 3 kts 173°
2026-04-25 21:28 33.94005 -118.40063 93 ft 4 kts 173°
2026-04-25 21:28 33.93961 -118.40056 96 ft 8 kts 173°
2026-04-25 21:28 33.93911 -118.40042 97 ft 7 kts 150°
2026-04-25 21:28 33.93882 -118.39971 99 ft 11 kts 88°
2026-04-25 21:29 33.93891 -118.39874 96 ft 14 kts 84°
2026-04-25 21:29 33.93906 -118.39732 95 ft 20 kts 83°
2026-04-25 21:29 33.93924 -118.39552 95 ft 22 kts 83°
2026-04-25 21:29 33.93943 -118.39375 97 ft 21 kts 83°
2026-04-25 21:30 33.93961 -118.39200 93 ft 21 kts 83°
2026-04-25 21:30 33.93981 -118.38997 94 ft 27 kts 83°
2026-04-25 21:30 33.94004 -118.38772 94 ft 26 kts 83°
2026-04-25 21:30 33.94019 -118.38629 95 ft 25 kts 83°
2026-04-25 21:31 33.94047 -118.38353 96 ft 24 kts 83°
2026-04-25 21:31 33.94068 -118.38156 94 ft 24 kts 83°
2026-04-25 21:31 33.94078 -118.38050 93 ft 7 kts 84°
2026-04-25 21:31 33.94061 -118.38008 94 ft 5 kts 145°
2026-04-25 21:32 33.93998 -118.37997 95 ft 6 kts 184°
2026-04-25 21:32 33.93983 -118.38031 93 ft 5 kts 261°
2026-04-25 21:32 33.93979 -118.38071 94 ft 5 kts 262°
2026-04-25 21:32 33.93966 -118.38187 98 ft 39 kts 262°
2026-04-25 21:33 33.93931 -118.38532 99 ft 85 kts 263°
2026-04-25 21:33 33.93834 -118.39473 97 ft 139 kts 263°
2026-04-25 21:33 33.93699 -118.40768 287 ft 162 kts 260°
2026-04-25 21:33 33.93546 -118.42101 937 ft 160 kts 260°
2026-04-25 21:34 33.93410 -118.43433 1575 ft 160 kts 260°
2026-04-25 21:34 33.93278 -118.44789 2024 ft 171 kts 262°
2026-04-25 21:34 33.93134 -118.46299 2187 ft 193 kts 262°
2026-04-25 21:34 33.92985 -118.48019 2439 ft 220 kts 263°
2026-04-25 21:35 33.92827 -118.49953 2853 ft 242 kts 263°
2026-04-25 21:35 33.92662 -118.52004 3645 ft 250 kts 263°
2026-04-25 21:35 33.92490 -118.54115 4457 ft 256 kts 263°
2026-04-25 21:35 33.92312 -118.56259 5358 ft 259 kts 263°
2026-04-25 21:36 33.92133 -118.58429 6260 ft 261 kts 264°
2026-04-25 21:36 33.91954 -118.60598 7085 ft 265 kts 263°
2026-04-25 21:36 33.91779 -118.62818 7930 ft 268 kts 266°
2026-04-25 21:36 33.91768 -118.65073 8788 ft 271 kts 269°
2026-04-25 21:37 33.91766 -118.67353 9650 ft 274 kts 268°
2026-04-25 21:37 33.91762 -118.68908 10178 ft 276 kts 268°
2026-04-25 21:37 33.91746 -118.72118 10614 ft 304 kts 267°
2026-04-25 21:37 33.91730 -118.74721 11165 ft 315 kts 267°
2026-04-25 21:38 33.91715 -118.77376 11783 ft 319 kts 266°
2026-04-25 21:38 33.91702 -118.80041 11963 ft 318 kts 266°
2026-04-25 21:38 33.91691 -118.82696 11997 ft 317 kts 266°
2026-04-25 21:38 33.91709 -118.85362 12322 ft 321 kts 268°
2026-04-25 21:39 33.91780 -118.88048 13229 ft 321 kts 268°
2026-04-25 21:39 33.91872 -118.90738 14034 ft 322 kts 268°
2026-04-25 21:39 33.91970 -118.93440 14717 ft 325 kts 268°
2026-04-25 21:39 33.92067 -118.96176 15385 ft 328 kts 268°
2026-04-25 21:40 33.92175 -118.98938 16020 ft 334 kts 270°
2026-04-25 21:40 33.92632 -119.01673 16660 ft 344 kts 282°
2026-04-25 21:40 33.93617 -119.04343 17310 ft 356 kts 294°
2026-04-25 21:40 33.94938 -119.06891 17968 ft 361 kts 295°
2026-04-25 21:41 33.96277 -119.09471 18551 ft 364 kts 295°
2026-04-25 21:41 33.97619 -119.12073 19094 ft 367 kts 294°
2026-04-25 21:41 33.98968 -119.14694 19667 ft 369 kts 294°
2026-04-25 21:41 34.00404 -119.17292 20211 ft 378 kts 300°
2026-04-25 21:42 34.02246 -119.19634 20756 ft 391 kts 311°
2026-04-25 21:42 34.04457 -119.21623 21301 ft 399 kts 316°
2026-04-25 21:42 34.06705 -119.23537 21824 ft 402 kts 316°
2026-04-25 21:42 34.08996 -119.25495 22348 ft 406 kts 316°
2026-04-25 21:43 34.11307 -119.27480 22835 ft 410 kts 315°
2026-04-25 21:43 34.13638 -119.29489 23335 ft 413 kts 315°
2026-04-25 21:43 34.15984 -119.31515 23795 ft 416 kts 315°
2026-04-25 21:43 34.18349 -119.33558 24220 ft 419 kts 315°
2026-04-25 21:44 34.20722 -119.35612 24627 ft 421 kts 315°
2026-04-25 21:44 34.23110 -119.37680 25052 ft 423 kts 315°
2026-04-25 21:44 34.27929 -119.41848 25871 ft 428 kts 315°
2026-04-25 21:45 34.30366 -119.43949 26276 ft 431 kts 315°
2026-04-25 21:45 34.31982 -119.45341 26540 ft 432 kts 315°
2026-04-25 21:45 34.35271 -119.48186 27067 ft 435 kts 315°
2026-04-25 21:45 34.37708 -119.50301 27451 ft 437 kts 315°
2026-04-25 21:46 34.40182 -119.52463 27846 ft 438 kts 314°
2026-04-25 21:46 34.42455 -119.54886 28242 ft 432 kts 306°
2026-04-25 21:46 34.44565 -119.57488 28648 ft 434 kts 306°
2026-04-25 21:46 34.46691 -119.60110 29027 ft 437 kts 306°
2026-04-25 21:47 34.48829 -119.62740 29410 ft 439 kts 306°
2026-04-25 21:47 34.50981 -119.65381 29775 ft 441 kts 306°
2026-04-25 21:47 34.53145 -119.68037 30102 ft 444 kts 306°
2026-04-25 21:47 34.55321 -119.70717 30417 ft 446 kts 306°
2026-04-25 21:48 34.57506 -119.73418 30743 ft 448 kts 306°
2026-04-25 21:48 34.59696 -119.76127 31054 ft 450 kts 306°
2026-04-25 21:48 34.61893 -119.78842 31344 ft 452 kts 306°
2026-04-25 21:48 34.64100 -119.81566 31698 ft 452 kts 306°
2026-04-25 21:49 34.66274 -119.84247 32219 ft 450 kts 306°
2026-04-25 21:49 34.68462 -119.86952 32686 ft 448 kts 306°
2026-04-25 21:49 34.70643 -119.89653 33164 ft 447 kts 305°
2026-04-25 21:49 34.72816 -119.92349 33630 ft 445 kts 306°
2026-04-25 21:50 34.74980 -119.95037 33939 ft 446 kts 306°
2026-04-25 21:50 34.79317 -120.00434 34005 ft 446 kts 306°
2026-04-25 21:51 34.83648 -120.05831 34007 ft 445 kts 306°
2026-04-25 21:51 34.87972 -120.11228 34003 ft 445 kts 306°
2026-04-25 21:52 34.92264 -120.16579 34018 ft 444 kts 306°
2026-04-25 21:52 34.96586 -120.21984 34022 ft 445 kts 307°
2026-04-25 21:53 35.00902 -120.27397 34027 ft 446 kts 307°
2026-04-25 21:53 35.05218 -120.32823 34022 ft 445 kts 306°
2026-04-25 21:54 35.09549 -120.38248 34022 ft 447 kts 308°
2026-04-25 21:54 35.14069 -120.43440 34020 ft 449 kts 310°
2026-04-25 21:55 35.18739 -120.48515 34017 ft 449 kts 311°
2026-04-25 21:55 35.23386 -120.53616 34028 ft 449 kts 310°
2026-04-25 21:56 35.28000 -120.58799 34021 ft 451 kts 310°
2026-04-25 21:56 35.32609 -120.64019 34018 ft 451 kts 310°
2026-04-25 21:57 35.37182 -120.69202 34019 ft 451 kts 310°
2026-04-25 21:57 35.41804 -120.74413 34019 ft 451 kts 311°
2026-04-25 21:58 35.46424 -120.79629 34031 ft 452 kts 310°
2026-04-25 21:58 35.51300 -120.84555 34034 ft 457 kts 316°
2026-04-25 21:59 35.56378 -120.89258 34032 ft 457 kts 316°
2026-04-25 21:59 35.61434 -120.93957 34017 ft 460 kts 317°
2026-04-25 22:00 35.69094 -121.01081 34020 ft 459 kts 316°
2026-04-25 22:00 35.74188 -121.05821 34017 ft 459 kts 316°
2026-04-25 22:01 35.79283 -121.10584 34012 ft 460 kts 316°
2026-04-25 22:01 35.83522 -121.14555 34003 ft 460 kts 316°
2026-04-25 22:02 35.89496 -121.20155 34002 ft 465 kts 316°
2026-04-25 22:02 35.94667 -121.25024 34016 ft 474 kts 316°
2026-04-25 22:03 35.99940 -121.29975 33971 ft 476 kts 316°
2026-04-25 22:03 36.02582 -121.32456 33000 ft 477 kts 317°
2026-04-25 22:03 36.05221 -121.34941 31668 ft 477 kts 317°
2026-04-25 22:04 36.07902 -121.37310 30431 ft 484 kts 324°
2026-04-25 22:04 36.10766 -121.39546 29713 ft 486 kts 324°
2026-04-25 22:04 36.13622 -121.41768 29185 ft 485 kts 324°
2026-04-25 22:04 36.16481 -121.43988 28617 ft 484 kts 325°
2026-04-25 22:05 36.19338 -121.46211 28075 ft 489 kts 325°
2026-04-25 22:05 36.22236 -121.48471 27503 ft 493 kts 325°
2026-04-25 22:05 36.25141 -121.50743 26950 ft 494 kts 325°
2026-04-25 22:05 36.28047 -121.53026 26421 ft 495 kts 326°
2026-04-25 22:06 36.30953 -121.55313 25870 ft 494 kts 326°
2026-04-25 22:06 36.33858 -121.57594 25346 ft 494 kts 326°
2026-04-25 22:06 36.36769 -121.59874 24816 ft 495 kts 326°
2026-04-25 22:06 36.39680 -121.62155 24290 ft 495 kts 326°
2026-04-25 22:07 36.42592 -121.64442 23754 ft 496 kts 326°
2026-04-25 22:07 36.44522 -121.65961 23366 ft 496 kts 326°
2026-04-25 22:07 36.48375 -121.68995 22068 ft 478 kts 326°
2026-04-25 22:07 36.51085 -121.71123 21389 ft 443 kts 327°
2026-04-25 22:08 36.53622 -121.73118 21040 ft 423 kts 326°
2026-04-25 22:08 36.56024 -121.75017 20936 ft 406 kts 326°
2026-04-25 22:08 36.58392 -121.76897 20992 ft 404 kts 326°
2026-04-25 22:08 36.60768 -121.78787 20989 ft 407 kts 326°
2026-04-25 22:09 36.63126 -121.80661 20782 ft 390 kts 327°
2026-04-25 22:09 36.65354 -121.82427 20076 ft 371 kts 326°
2026-04-25 22:09 36.67501 -121.84132 19170 ft 362 kts 327°
2026-04-25 22:09 36.69609 -121.85806 18272 ft 359 kts 327°
2026-04-25 22:10 36.71714 -121.87475 17807 ft 355 kts 327°
2026-04-25 22:10 36.73850 -121.88978 17389 ft 351 kts 334°
2026-04-25 22:10 36.76139 -121.89973 16966 ft 347 kts 346°
2026-04-25 22:10 36.78484 -121.90623 16549 ft 343 kts 348°
2026-04-25 22:11 36.80771 -121.91256 16145 ft 339 kts 348°
2026-04-25 22:11 36.83097 -121.91903 15737 ft 336 kts 348°
2026-04-25 22:11 36.85335 -121.92529 15345 ft 333 kts 348°
2026-04-25 22:11 36.87583 -121.93160 14948 ft 330 kts 348°
2026-04-25 22:12 36.89812 -121.93787 14555 ft 327 kts 348°
2026-04-25 22:12 36.92029 -121.94410 14153 ft 324 kts 348°
2026-04-25 22:12 36.94229 -121.95026 13748 ft 322 kts 348°
2026-04-25 22:12 36.95674 -121.95451 13453 ft 320 kts 345°
2026-04-25 22:13 36.98517 -121.96465 12940 ft 315 kts 342°
2026-04-25 22:13 37.00599 -121.97293 12546 ft 312 kts 341°
2026-04-25 22:13 37.02652 -121.98133 12158 ft 309 kts 341°
2026-04-25 22:13 37.04730 -121.98981 11773 ft 327 kts 341°
2026-04-25 22:14 37.06943 -121.99876 11335 ft 338 kts 341°
2026-04-25 22:14 37.09164 -122.00760 10902 ft 339 kts 342°
2026-04-25 22:14 37.11415 -122.01644 10464 ft 339 kts 342°
2026-04-25 22:14 37.13665 -122.02518 10200 ft 337 kts 340°
2026-04-25 22:15 37.15921 -122.03394 10091 ft 339 kts 341°
2026-04-25 22:15 37.18175 -122.04271 9885 ft 340 kts 341°
2026-04-25 22:15 37.20431 -122.05154 9403 ft 337 kts 341°
2026-04-25 22:16 37.24660 -122.06815 9124 ft 299 kts 340°
2026-04-25 22:16 37.26592 -122.07573 8843 ft 284 kts 341°
2026-04-25 22:16 37.28453 -122.08301 8306 ft 276 kts 340°
2026-04-25 22:16 37.30273 -122.09014 7571 ft 272 kts 341°
2026-04-25 22:17 37.32054 -122.09719 7088 ft 266 kts 340°
2026-04-25 22:17 37.33828 -122.10423 6745 ft 270 kts 341°
2026-04-25 22:17 37.35615 -122.11130 6374 ft 268 kts 340°
2026-04-25 22:17 37.37363 -122.11822 6045 ft 265 kts 341°
2026-04-25 22:18 37.39106 -122.12475 5685 ft 256 kts 342°
2026-04-25 22:18 37.40768 -122.13048 5400 ft 240 kts 343°
2026-04-25 22:18 37.42363 -122.13582 5116 ft 236 kts 343°
2026-04-25 22:18 37.43948 -122.14115 4828 ft 236 kts 344°
2026-04-25 22:19 37.45532 -122.14648 4536 ft 235 kts 342°
2026-04-25 22:19 37.47106 -122.15180 4243 ft 234 kts 342°
2026-04-25 22:19 37.48675 -122.15713 3952 ft 234 kts 342°
2026-04-25 22:19 37.50246 -122.16251 3664 ft 234 kts 341°
2026-04-25 22:20 37.51814 -122.16799 3391 ft 233 kts 339°
2026-04-25 22:20 37.53202 -122.17742 3149 ft 224 kts 316°
2026-04-25 22:20 37.54184 -122.19235 2890 ft 222 kts 295°
2026-04-25 22:20 37.54909 -122.20948 2604 ft 222 kts 295°
2026-04-25 22:21 37.55627 -122.22660 2337 ft 218 kts 294°
2026-04-25 22:21 37.56301 -122.24253 2069 ft 190 kts 294°
2026-04-25 22:21 37.56877 -122.25617 1822 ft 165 kts 294°
2026-04-25 22:21 37.57397 -122.26855 1616 ft 157 kts 295°
2026-04-25 22:22 37.57871 -122.27981 1442 ft 140 kts 295°
2026-04-25 22:22 37.58318 -122.29045 1262 ft 134 kts 295°
2026-04-25 22:22 37.58751 -122.30073 1066 ft 131 kts 295°
2026-04-25 22:22 37.59178 -122.31089 878 ft 130 kts 294°
2026-04-25 22:23 37.59603 -122.32100 704 ft 133 kts 295°
2026-04-25 22:23 37.60037 -122.33133 541 ft 132 kts 293°
2026-04-25 22:23 37.60465 -122.34153 369 ft 131 kts 292°
2026-04-25 22:23 37.60893 -122.35174 205 ft 132 kts 292°
2026-04-25 22:24 37.61324 -122.36199 31 ft 132 kts 293°
2026-04-25 22:24 37.61689 -122.37072 21 ft 84 kts 297°
2026-04-25 22:24 37.61890 -122.37549 21 ft 49 kts 298°
2026-04-25 22:24 37.62002 -122.37835 21 ft 11 kts 278°
2026-04-25 22:25 37.61968 -122.37931 21 ft 14 kts 228°
2026-04-25 22:25 37.61923 -122.37992 23 ft 7 kts 227°
2026-04-25 22:25 37.61907 -122.38050 21 ft 7 kts 271°
2026-04-25 22:25 37.61926 -122.38108 21 ft 7 kts 298°
2026-04-25 22:26 37.61950 -122.38164 21 ft 7 kts 298°
2026-04-25 22:26 37.61959 -122.38224 21 ft 7 kts 263°
2026-04-25 22:26 37.61929 -122.38271 21 ft 7 kts 213°
2026-04-25 22:26 37.61908 -122.38299 22 ft 2 kts 257°
2026-04-25 22:27 37.61910 -122.38315 21 ft 2 kts 283°
2026-04-25 22:27 37.61917 -122.38339 21 ft 2 kts 292°
2026-04-25 22:27 37.61921 -122.38352 21 ft 1 kts 292°
2026-04-25 22:27 37.61923 -122.38356 21 ft 0 kts 292°